I1SXT-13 Weather Reports


time (UTC)temp
C
wind
direction
speed
KPH
gust
KPH
rain 1hr
cm
rain 24hr
cm
rain mn
cm
humidity
%
barometer
mb
20260507150929 19 0.0 0.0 0.00 0.00 0.00 71 1015.3
20260507145928 19 0.0 0.0 0.00 0.00 0.00 70 1014.6
20260507145424 20 0.0 0.0 0.00 0.00 0.00 69 1014.9
20260507144927 20 0.0 0.0 0.00 0.00 0.00 69 1015.1
20260507144429 20 0.0 0.0 0.00 0.00 0.00 68 1014.7
20260507143925 20 0.0 0.0 0.00 0.00 0.00 67 1014.8
20260507143428 20 0.0 0.0 0.00 0.00 0.00 68 1014.4
20260507142924 21 0.0 0.0 0.00 0.00 0.00 66 1015.0
20260507141930 21 0.0 0.0 0.00 0.00 0.00 67 1016.0
20260507141426 20 0.0 0.0 0.00 0.00 0.00 68 1015.2
20260507140929 21 0.0 0.0 0.00 0.00 0.00 68 1015.6
20260507140425 19 0.0 0.0 0.00 0.00 0.00 71 1015.3
20260507135927 20 0.0 0.0 0.00 0.00 0.00 68 1015.5
20260507135423 20 0.0 0.0 0.00 0.00 0.00 69 1016.0
20260507134926 20 0.0 0.0 0.00 0.00 0.00 69 1016.0
20260507134429 20 0.0 0.0 0.00 0.00 0.00 67 1015.5
20260507133925 20 0.0 0.0 0.00 0.00 0.00 70 1015.8
20260507133428 18 0.0 0.0 0.00 0.00 0.00 72 1015.4
20260507132924 20 0.0 0.0 0.00 0.00 0.00 68 1015.8
20260507131929 20 0.0 0.0 0.00 0.00 0.00 70 1015.2
20260507131425 20 0.0 0.0 0.00 0.00 0.00 72 1015.5
20260507130928 20 0.0 0.0 0.00 0.00 0.00 70 1016.0
20260507130424 22 0.0 0.0 0.00 0.00 0.00 63 1015.6
20260507125927 21 0.0 0.0 0.00 0.00 0.00 65 1015.7
20260507125430 21 0.0 0.0 0.00 0.00 0.00 67 1014.8
20260507124926 20 0.0 0.0 0.00 0.00 0.00 70 1015.4
20260507124429 20 0.0 0.0 0.00 0.00 0.00 71 1015.8
20260507123924 19 0.0 0.0 0.00 0.00 0.00 70 1015.8
20260507123427 20 0.0 0.0 0.00 0.00 0.00 69 1016.0
20260507122923 21 0.0 0.0 0.00 0.00 0.00 69 1015.8
20260507122426 20 0.0 0.0 0.00 0.00 0.00 69 1015.5
20260507121929 21 0.0 0.0 0.00 0.00 0.00 68 1015.5
20260507121425 20 0.0 0.0 0.00 0.00 0.00 70 1015.1
20260507120928 20 0.0 0.0 0.00 0.00 0.00 69 1015.9
20260507120424 20 0.0 0.0 0.00 0.00 0.00 69 1015.0
20260507115926 19 0.0 0.0 0.00 0.00 0.00 70 1015.4
20260507115429 20 0.0 0.0 0.00 0.00 0.00 70 1015.4
20260507114925 20 0.0 0.0 0.00 0.00 0.00 71 1016.1
20260507114428 18 0.0 0.0 0.00 0.00 0.00 75 1015.9
20260507113924 18 0.0 0.0 0.00 0.00 0.00 72 1015.6
20260507112426 18 0.0 0.0 0.00 0.00 0.00 72 1015.4
20260507111928 19 0.0 0.0 0.00 0.00 0.00 69 1015.6
20260507110423 19 0.0 0.0 0.00 0.00 0.00 69 1015.2
20260507105926 19 0.0 0.0 0.00 0.00 0.00 71 1015.0
20260507105429 19 0.0 0.0 0.00 0.00 0.00 70 1015.6
20260507104428 18 0.0 0.0 0.00 0.00 0.00 70 1015.2
20260507103924 19 0.0 0.0 0.00 0.00 0.00 71 1015.2
20260507103427 18 0.0 0.0 0.00 0.00 0.00 72 1015.1
20260507102929 18 0.0 0.0 0.00 0.00 0.00 73 1015.5
20260507102425 18 0.0 0.0 0.00 0.00 0.00 74 1015.5
20260507101928 18 0.0 0.0 0.00 0.00 0.00 74 1015.2
20260507100927 18 0.0 0.0 0.00 0.00 0.00 73 1014.8
20260507100430 18 0.0 0.0 0.00 0.00 0.00 71 1015.2
20260507095926 18 0.0 0.0 0.00 0.00 0.00 74 1014.8
20260507095429 18 0.0 0.0 0.00 0.00 0.00 72 1015.5
20260507094925 19 0.0 0.0 0.00 0.00 0.00 72 1014.8
20260507094427 18 0.0 0.0 0.00 0.00 0.00 70 1014.9
20260507093923 18 0.0 0.0 0.00 0.00 0.00 72 1014.8
20260507093426 18 0.0 0.0 0.00 0.00 0.00 73 1014.8
20260507092929 18 0.0 0.0 0.00 0.00 0.00 71 1015.1
20260507092425 18 0.0 0.0 0.00 0.00 0.00 72 1014.8
20260507091928 18 0.0 0.0 0.00 0.00 0.00 74 1014.9
20260507091424 18 0.0 0.0 0.00 0.00 0.00 72 1014.7
20260507090927 18 0.0 0.0 0.00 0.00 0.00 71 1014.7
20260507090429 18 0.0 0.0 0.00 0.00 0.00 74 1015.1
20260507085925 17 0.0 0.0 0.00 0.00 0.00 75 1015.0
20260507085428 18 0.0 0.0 0.00 0.00 0.00 73 1014.7
20260507084924 18 0.0 0.0 0.00 0.00 0.00 72 1014.6
20260507084427 18 0.0 0.0 0.00 0.00 0.00 72 1014.6
20260507083930 17 0.0 0.0 0.00 0.00 0.00 75 1014.7
20260507083426 17 0.0 0.0 0.00 0.00 0.00 72 1014.7
20260507082928 17 0.0 0.0 0.00 0.00 0.00 72 1014.5
20260507082424 17 0.0 0.0 0.00 0.00 0.00 72 1014.5
20260507081927 17 0.0 0.0 0.00 0.00 0.00 73 1014.7
20260507081423 17 0.0 0.0 0.00 0.00 0.00 75 1014.3
20260507080926 17 0.0 0.0 0.00 0.00 0.00 74 1014.4
20260507080429 17 0.0 0.0 0.00 0.00 0.00 73 1014.6
20260507075925 17 0.0 0.0 0.00 0.00 0.00 72 1014.6
20260507075428 17 0.0 0.0 0.00 0.00 0.00 74 1014.5
20260507074924 17 0.0 0.0 0.00 0.00 0.00 73 1015.0
20260507074426 17 0.0 0.0 0.00 0.00 0.00 75 1014.3
20260507073929 16 0.0 0.0 0.00 0.00 0.00 77 1014.4
20260507073425 16 0.0 0.0 0.00 0.00 0.00 77 1014.6
20260507072928 16 0.0 0.0 0.00 0.00 0.00 76 1014.3
20260507072424 16 0.0 0.0 0.00 0.00 0.00 75 1014.5
20260507071927 16 0.0 0.0 0.00 0.00 0.00 76 1014.3
20260507071429 16 0.0 0.0 0.00 0.00 0.00 77 1014.3
20260507070925 16 0.0 0.0 0.00 0.00 0.00 76 1014.3
20260507070428 16 0.0 0.0 0.00 0.00 0.00 77 1014.1
20260507065924 16 0.0 0.0 0.00 0.00 0.00 74 1014.3
20260507065427 16 0.0 0.0 0.00 0.00 0.00 75 1014.1
20260507064930 16 0.0 0.0 0.00 0.00 0.00 75 1014.5
20260507064425 16 0.0 0.0 0.00 0.00 0.00 79 1014.7
20260507063928 16 0.0 0.0 0.00 0.00 0.00 78 1014.4
20260507063424 15 0.0 0.0 0.00 0.00 0.00 80 1014.1
20260507062927 15 0.0 0.0 0.00 0.00 0.00 80 1014.4
20260507061926 15 0.0 0.0 0.00 0.00 0.00 80 1013.3
20260507061429 15 0.0 0.0 0.00 0.00 0.00 77 1013.8
20260507060925 15 0.0 0.0 0.00 0.00 0.00 77 1013.9
20260507060427 15 0.0 0.0 0.00 0.00 0.00 76 1013.9
20260507055923 15 0.0 0.0 0.00 0.00 0.00 76 1013.5
20260507055426 15 0.0 0.0 0.00 0.00 0.00 79 1013.9
20260507054929 15 0.0 0.0 0.00 0.00 0.00 80 1014.0
20260507054425 15 0.0 0.0 0.00 0.00 0.00 78 1012.9
20260507053928 15 0.0 0.0 0.00 0.00 0.00 82 1013.8
20260507053424 15 0.0 0.0 0.00 0.00 0.00 79 1013.7
20260507052926 14 0.0 0.0 0.00 0.00 0.00 80 1013.3
20260507052429 14 0.0 0.0 0.00 0.00 0.00 81 1014.2
20260507051925 14 0.0 0.0 0.00 0.00 0.00 81 1013.4
20260507051428 13 0.0 0.0 0.00 0.00 0.00 80 1013.2
20260507050924 14 0.0 0.0 0.00 0.00 0.00 81 1014.1
20260507050427 14 0.0 0.0 0.00 0.00 0.00 80 1013.5
20260507045930 14 0.0 0.0 0.00 0.00 0.00 82 1013.1
20260507045426 14 0.0 0.0 0.00 0.00 0.00 81 1013.3
20260507044928 14 0.0 0.0 0.00 0.00 0.00 82 1013.3
20260507044424 14 0.0 0.0 0.00 0.00 0.00 83 1013.3
20260507043927 13 0.0 0.0 0.00 0.00 0.00 81 1013.5
20260507043423 13 0.0 0.0 0.00 0.00 0.00 81 1013.7
20260507042926 13 0.0 0.0 0.00 0.00 0.00 82 1013.8
20260507042429 13 0.0 0.0 0.00 0.00 0.00 81 1013.4
20260507041925 14 0.0 0.0 0.00 0.00 0.00 82 1013.0
20260507041428 14 0.0 0.0 0.00 0.00 0.00 82 1013.1
20260507040923 14 0.0 0.0 0.00 0.00 0.00 81 1013.2
20260507040426 14 0.0 0.0 0.00 0.00 0.00 81 1013.1
20260507035929 14 0.0 0.0 0.00 0.00 0.00 81 1013.1
20260507035425 13 0.0 0.0 0.00 0.00 0.00 82 1012.9
20260507034928 13 0.0 0.0 0.00 0.00 0.00 83 1012.9
20260507034424 14 0.0 0.0 0.00 0.00 0.00 83 1013.3
20260507033927 13 0.0 0.0 0.00 0.00 0.00 82 1013.8
20260507033430 13 0.0 0.0 0.00 0.00 0.00 84 1013.9
20260507032925 13 0.0 0.0 0.00 0.00 0.00 84 1013.7
20260507032428 13 0.0 0.0 0.00 0.00 0.00 85 1013.7
20260507031924 13 0.0 0.0 0.00 0.00 0.00 85 1014.2
20260507031427 13 0.0 0.0 0.00 0.00 0.00 85 1012.8
20260507030930 13 0.0 0.0 0.00 0.00 0.00 84 1014.0
20260507030426 13 0.0 0.0 0.00 0.00 0.00 84 1013.1
20260507025929 13 0.0 0.0 0.00 0.00 0.00 85 1013.8
20260507025425 13 0.0 0.0 0.00 0.00 0.00 85 1012.8
20260507024423 13 0.0 0.0 0.00 0.00 0.00 85 1013.0
20260507023926 14 0.0 0.0 0.00 0.00 0.00 84 1013.7
20260507023429 13 0.0 0.0 0.00 0.00 0.00 84 1013.2
20260507022428 14 0.0 0.0 0.00 0.00 0.00 84 1013.3
20260507021427 13 0.0 0.0 0.00 0.00 0.00 85 1013.4
20260507020930 13 0.0 0.0 0.00 0.00 0.00 85 1013.7
20260507020426 13 0.0 0.0 0.00 0.00 0.00 85 1013.8
20260507015424 13 0.0 0.0 0.00 0.00 0.00 87 1014.3
20260507014927 13 0.0 0.0 0.00 0.00 0.00 88 1013.4
20260507014430 13 0.0 0.0 0.00 0.00 0.00 86 1012.9
20260507013926 13 0.0 0.0 0.00 0.00 0.00 87 1013.3
20260507013429 13 0.0 0.0 0.00 0.00 0.00 86 1012.9
20260507012925 13 0.0 0.0 0.00 0.00 0.00 88 1013.5
20260507012428 13 0.0 0.0 0.00 0.00 0.00 88 1013.5
20260507011923 13 0.0 0.0 0.00 0.00 0.00 89 1012.9
20260507011426 13 0.0 0.0 0.00 0.00 0.00 90 1013.3
20260507010929 13 0.0 0.0 0.00 0.00 0.00 89 1013.2
20260507010425 13 0.0 0.0 0.00 0.00 0.00 90 1013.5
20260507005928 13 0.0 0.0 0.00 0.00 0.00 90 1012.8
20260507005424 13 0.0 0.0 0.00 0.00 0.00 90 1013.7
20260507004927 13 0.0 0.0 0.00 0.00 0.00 90 1014.1
20260507004429 13 0.0 0.0 0.00 0.00 0.00 90 1013.6
20260507003925 13 0.0 0.0 0.00 0.00 0.00 89 1013.7
20260507003428 13 0.0 0.0 0.00 0.00 0.00 89 1014.1
20260507002924 13 0.0 0.0 0.00 0.00 0.00 89 1012.7
20260507002427 13 0.0 0.0 0.00 0.00 0.00 89 1013.4
20260507001930 13 0.0 0.0 0.00 0.00 0.00 89 1013.9
20260507001426 13 0.0 0.0 0.00 0.00 0.00 88 1013.1
20260507000929 13 0.0 0.0 0.00 0.00 0.00 88 1013.9
20260507000424 13 0.0 0.0 0.00 0.00 0.00 88 1013.8
20260506235927 13 0.0 0.0 0.00 0.00 0.00 89 1014.1
20260506235423 13 0.0 0.0 0.00 0.00 0.00 88 1013.3
20260506234926 13 0.0 0.0 0.00 0.00 0.00 88 1013.1
20260506234429 13 0.0 0.0 0.00 0.00 0.00 87 1012.8
20260506233925 13 0.0 0.0 0.00 0.00 0.00 88 1013.5
20260506233428 13 0.0 0.0 0.00 0.00 0.00 88 1013.3
20260506232924 13 0.0 0.0 0.00 0.00 0.00 88 1013.3
20260506232427 13 0.0 0.0 0.00 0.00 0.00 88 1014.0
20260506231930 13 0.0 0.0 0.00 0.00 0.00 87 1013.4
20260506231425 13 0.0 0.0 0.00 0.00 0.00 88 1013.0
20260506230928 13 0.0 0.0 0.00 0.00 0.00 88 1013.7
20260506230425 13 0.0 0.0 0.00 0.00 0.00 87 1013.8
20260506225927 13 0.0 0.0 0.00 0.00 0.00 88 1013.3
20260506225423 13 0.0 0.0 0.00 0.00 0.00 87 1013.2
20260506224926 13 0.0 0.0 0.00 0.00 0.00 88 1013.1
20260506224429 13 0.0 0.0 0.00 0.00 0.00 89 1012.5
20260506223925 13 0.0 0.0 0.00 0.00 0.00 88 1012.2
20260506223428 13 0.0 0.0 0.00 0.00 0.00 88 1013.3
20260506222924 13 0.0 0.0 0.00 0.00 0.00 88 1013.7
20260506222427 13 0.0 0.0 0.00 0.00 0.00 88 1012.7
20260506221929 13 0.0 0.0 0.00 0.00 0.00 88 1013.2
20260506221425 13 0.0 0.0 0.00 0.00 0.00 88 1013.8
20260506220928 13 0.0 0.0 0.00 0.00 0.00 87 1013.2
20260506220424 13 0.0 0.0 0.00 0.00 0.00 86 1013.5
20260506215924 14 0.0 0.0 0.00 0.00 3.43 87 1013.7
20260506215427 13 0.0 0.0 0.00 0.00 3.43 87 1013.3
20260506214930 13 0.0 0.0 0.00 0.00 3.43 87 1013.8
20260506214426 13 0.0 0.0 0.00 0.00 3.43 88 1013.3
20260506213929 13 0.0 0.0 0.00 0.00 3.43 88 1013.8
20260506213425 13 0.0 0.0 0.00 0.00 3.43 88 1013.3
20260506212927 13 0.0 0.0 0.00 0.00 3.43 89 1013.3
20260506212423 14 0.0 0.0 0.00 0.00 3.43 89 1012.7
20260506211926 14 0.0 0.0 0.00 0.00 3.43 89 1012.6
20260506211429 14 0.0 0.0 0.00 0.00 3.43 88 1013.5
20260506210925 15 0.0 0.0 0.00 0.00 3.43 87 1012.4
20260506210428 15 0.0 0.0 0.00 0.00 3.43 86 1013.6
20260506205924 15 0.0 0.0 0.00 0.00 3.43 86 1013.2
20260506205427 15 0.0 0.0 0.00 0.00 3.43 85 1013.4
20260506204930 15 0.0 0.0 0.00 0.00 3.43 86 1012.9
20260506204426 14 0.0 0.0 0.00 0.00 3.43 87 1013.0
20260506203928 14 0.0 0.0 0.00 0.00 3.43 88 1012.3
20260506202423 14 0.0 0.0 0.00 0.00 3.43 89 1012.5
20260506201926 14 0.0 0.0 0.00 0.00 3.43 89 1012.7
20260506201429 15 0.0 0.0 0.00 0.00 3.43 88 1012.2
20260506200925 14 0.0 0.0 0.00 0.00 3.43 88 1012.0
20260506200428 15 0.0 0.0 0.00 0.00 3.43 89 1011.7
20260506195923 15 0.0 0.0 0.00 0.00 3.43 88 1012.6
20260506195426 15 0.0 0.0 0.00 0.00 3.43 89 1012.5
20260506194929 14 0.0 0.0 0.00 0.00 3.43 89 1012.7
20260506194425 14 0.0 0.0 0.00 0.00 3.43 88 1011.8
20260506193928 15 0.0 0.0 0.00 0.00 3.43 88 1011.9
20260506193424 15 0.0 0.0 0.00 0.00 3.43 88 1011.9
20260506192927 15 0.0 0.0 0.00 0.00 3.43 89 1012.0
20260506192430 15 0.0 0.0 0.00 0.00 3.43 88 1011.9
20260506191926 15 0.0 0.0 0.00 0.00 3.43 88 1011.6
20260506191428 15 0.0 0.0 0.00 0.00 3.43 87 1011.4
20260506190925 15 0.0 0.0 0.00 0.00 3.43 86 1011.3
20260506190427 15 0.0 0.0 0.00 0.00 3.43 85 1011.5
20260506185923 15 0.0 0.0 0.00 0.00 3.43 85 1011.3
20260506185426 16 0.0 0.0 0.00 0.00 3.43 82 1011.5
20260506184929 16 0.0 0.0 0.00 0.00 3.43 81 1011.0
20260506184425 15 0.0 0.0 0.00 0.00 3.43 83 1011.4
20260506183928 16 0.0 0.0 0.00 0.00 3.43 82 1011.8
20260506183424 16 0.0 0.0 0.00 0.00 3.43 82 1011.1
20260506182927 15 0.0 0.0 0.00 0.00 3.43 85 1011.2
20260506182429 15 0.0 0.0 0.00 0.00 3.43 84 1011.2
20260506181925 16 0.0 0.0 0.00 0.00 3.43 83 1011.6
20260506180924 16 0.0 0.0 0.00 0.00 3.43 82 1010.8
20260506180427 16 0.0 0.0 0.00 0.00 3.43 80 1011.1
20260506175426 16 0.0 0.0 0.00 0.00 3.43 79 1010.8
20260506174929 16 0.0 0.0 0.00 0.00 3.43 79 1011.5
20260506174425 16 0.0 0.0 0.00 0.00 3.43 78 1011.1
20260506173928 16 0.0 0.0 0.00 0.00 3.43 77 1011.0
20260506173424 16 0.0 0.0 0.00 0.00 3.43 77 1010.2
20260506172926 16 0.0 0.0 0.00 0.00 3.43 77 1011.0
20260506172429 16 0.0 0.0 0.00 0.00 3.43 76 1010.6
20260506171925 16 0.0 0.0 0.00 0.00 3.43 75 1011.6
20260506171428 17 0.0 0.0 0.00 0.00 3.43 76 1010.7
20260506165930 17 0.0 0.0 0.00 0.00 3.43 77 1011.0
20260506165426 17 0.0 0.0 0.00 0.00 3.43 77 1010.7
20260506164929 16 0.0 0.0 0.00 0.00 3.43 76 1011.0
20260506164424 16 0.0 0.0 0.00 0.00 3.43 76 1010.9
20260506163927 17 0.0 0.0 0.00 0.00 3.43 78 1010.9
20260506163423 17 0.0 0.0 0.00 0.00 3.43 78 1011.1
20260506162926 17 0.0 0.0 0.00 0.00 3.43 78 1011.1
20260506162429 17 0.0 0.0 0.00 0.00 3.43 77 1010.7
20260506161925 17 0.0 0.0 0.00 0.00 3.43 76 1010.5
20260506161428 17 0.0 0.0 0.00 0.00 3.43 76 1010.9
20260506160924 18 0.0 0.0 0.00 0.00 3.43 76 1011.3
20260506160427 17 0.0 0.0 0.00 0.00 3.43 79 1011.2
20260506155929 17 0.0 0.0 0.00 0.00 3.43 79 1010.9
20260506155425 17 0.0 0.0 0.00 0.00 3.43 79 1010.5
20260506154928 17 0.0 0.0 0.00 0.00 3.43 78 1010.6
20260506154424 17 0.0 0.0 0.00 0.00 3.43 77 1010.7
20260506153927 17 0.0 0.0 0.00 0.00 3.43 76 1010.8
20260506153430 17 0.0 0.0 0.00 0.00 3.43 79 1010.1
20260506152926 18 0.0 0.0 0.00 0.00 3.43 78 1010.0
20260506152429 17 0.0 0.0 0.00 0.00 3.43 79 1010.1
20260506151925 18 0.0 0.0 0.00 0.00 3.43 77 1010.8
20260506151427 18 0.0 0.0 0.00 0.00 3.43 77 1011.3